Location: Brno
(49.2000°N, 16.6330°E)
Time: 11:21:09
(UTC+02:00)

Cosmos 2227 - Visible Passes

Search period start: 29 August 2015 00:00
Search period end: 08 September 2015 00:00
Orbit: 836 x 861 km, 71.0° (Epoch: 29 August)

Date Brightness Start Highest point End Pass type
(mag) Time Alt. Az. Time Alt. Az. Time Alt. Az.
29 Aug 5.1 01:01:33 10° NW 01:05:20 39° WNW 01:05:20 39° WNW visible
29 Aug 6.6 21:22:10 10° N 21:23:16 11° NNE 21:24:30 10° NE visible
29 Aug 5.3 23:04:26 10° NNW 23:09:27 32° NE 23:10:21 31° ENE visible
30 Aug 5.1 00:48:28 10° NW 00:52:17 40° WNW 00:52:17 40° WNW visible
30 Aug 6.6 21:09:09 10° N 21:10:10 10° NNE 21:11:19 10° NNE visible
30 Aug 5.3 22:51:22 10° NNW 22:56:21 32° NE 22:57:20 30° ENE visible
31 Aug 5.1 00:35:23 10° NW 00:39:15 41° WNW 00:39:15 41° WNW visible
31 Aug 6.6 20:56:08 10° NNE 20:57:04 10° NNE 20:58:09 10° NNE visible
31 Aug 5.3 22:38:18 10° NNW 22:43:16 31° NE 22:44:19 29° ENE visible
01 Sep 5.1 00:22:18 10° NW 00:26:15 42° WNW 00:26:15 42° WNW visible
01 Sep 6.6 20:43:08 10° NNE 20:43:58 10° NNE 20:44:57 10° NNE visible
01 Sep 5.3 22:25:13 10° NNW 22:30:11 31° NE 22:31:21 29° ENE visible
02 Sep 5.0 00:09:14 10° NW 00:13:16 44° WNW 00:13:16 44° WNW visible
02 Sep 6.6 20:30:08 10° NNE 20:30:52 10° NNE 20:31:44 10° NNE visible
02 Sep 5.3 22:12:09 10° NNW 22:17:05 31° NE 22:18:24 28° ENE visible
02 Sep 5.0 23:56:08 10° NW 00:00:20 46° WNW 00:00:20 46° WNW visible
03 Sep 6.6 20:17:08 10° NNE 20:17:46 10° NNE 20:18:32 10° NNE visible
03 Sep 5.3 21:59:04 10° NNW 22:04:00 30° NE 22:05:28 27° ENE visible
03 Sep 4.9 23:43:02 10° NW 23:47:24 48° WNW 23:47:24 48° WNW visible
04 Sep 6.5 20:04:11 10° NNE 20:04:39 10° NNE 20:05:16 10° NNE visible
04 Sep 5.3 21:46:00 10° NNW 21:50:54 30° NE 21:52:34 26° ENE visible
04 Sep 4.8 23:29:57 10° NW 23:34:30 51° WNW 23:34:30 51° WNW visible
05 Sep 5.4 21:32:55 10° NNW 21:37:49 30° NE 21:39:42 25° E visible
05 Sep 4.7 23:16:52 10° NW 23:21:38 54° WNW 23:21:38 54° WNW visible
06 Sep 5.4 21:19:51 10° NNW 21:24:43 29° NE 21:26:51 23° E visible
06 Sep 4.6 23:03:47 10° NW 23:08:48 58° W 23:08:48 58° W visible
07 Sep 5.4 21:06:46 10° NNW 21:11:37 29° NE 21:14:03 22° E visible
07 Sep 4.4 22:50:42 10° NW 22:55:59 61° W 22:55:59 61° W visible
